Regional Weather Roundup
Issued by NWS Austin/San Antonio, TX

Home | Current Version | Previous Version | Text Only | Print | Product List | Glossary On
Versions: 1 2 3 4 5 6 7 8 9 10 11 12 13 14 15 16 17 18 19 20 21 22 23 24 25 26 27 28 29 30 31 32 33 34 35 36 37 38 39 40 41 42 43 44 45 46 47 48 49 50
000
ASUS44 KEWX 202301
RWREWX
SOUTH TEXAS REGIONAL WEATHER ROUNDUP
NATIONAL WEATHER SERVICE AUSTIN/SAN ANTONIO TX
600 PM CDT FRI OCT 20 2017

NOTE: "FAIR" INDICATED FEW OR NO CLOUDS BELOW 12,000 FEET WITH NO
SIGNIFICANT WEATHER AND/OR OBSTRUCTIONS TO VISIBILITY.

* - THESE STATIONS ARE NOT NWS OR FAA STATIONS...AND ARE NOT SUBJECT
    TO NWS AND FAA QUALITY CONTROL.

TXZ171-172-183>190-210000-
TEXAS HILL COUNTRY AND EDWARDS PLATEAU

CITY           SKY/WX    TMP DP  RH WIND       PRES   REMARKS
JUNCTION       SUNNY     76  61  59 S10       29.92F
*LLANO         MOSUNNY   79  66  65 E3        29.95S
BURNET         MOSUNNY   78  67  68 SE10      29.95F
*HORSESHOE BAY PTSUNNY   79  66  65 S7        29.93S
*KERRVILLE     CLOUDY    76  68  75 S9        29.95S
*FREDERICKSBRG CLOUDY    75  63  65 S10       29.95R
*ROCKSPRINGS   NOT AVBL
*BOERNE STAGE  CLOUDY    73  64  73 S3        29.96R
*CASTROVILLE   CLOUDY    78  64  60 SE6       29.94S
HONDO          CLOUDY    79  66  64 S5        29.93S
*UVALDE        CLOUDY    76  66  71 E9        29.92F
DEL RIO        MOSUNNY   80  65  59 SE16      29.87S
LAUGHLIN AFB   PTSUNNY   80  67  64 S16       29.87F
CARRIZO SPRGS  CLOUDY    79  68  69 E7        29.88S
*EAGLE PASS    NOT AVBL
$$

TXZ173-191>194-202-209-217>225-228-210000-
CENTRAL AND SOUTH CENTRAL TEXAS

CITY           SKY/WX    TMP DP  RH WIND       PRES   REMARKS
GEORGETOWN     CLOUDY    80  66  62 S9        29.94R
AUSTIN/BERGSTM PTSUNNY   80  68  66 S7        29.91S
AUSTIN/MABRY   CLOUDY    80  67  64 S5        29.93S
*AUSTIN/EXEC   CLOUDY    81  66  61 CALM      29.92S
*LAGO VISTA    MOSUNNY   77  68  72 SE3       29.95R
SAN MARCOS     CLOUDY    80  69  69 S8        29.92S
NEW BRAUNFELS  CLOUDY    81  67  62 S7        29.90F
RANDOLPH AFB   CLOUDY    78  68  69 SE6       29.91F
PT SAN ANTONIO CLOUDY    78  67  69 E3        29.90S
SAN ANTONIO    CLOUDY    78  66  66 SE5       29.92F
STINSON FIELD  CLOUDY    80  69  69 CALM      29.89F
*LA GRANGE     PTCLDY    85  71  61 SE8       29.89S HX  90
*GIDDINGS      MOCLDY    85  64  50 SE10      29.91S
*GONZALES      PTSUNNY   83  71  66 S5        29.90S
$$

TXZ163>164-176>182-195>201-210>213-226-227-235-210000-
SOUTHEAST TEXAS

CITY           SKY/WX    TMP DP  RH WIND       PRES   REMARKS
COLLEGE STN    PTCLDY    81  70  69 E15       29.92F
*BRYAN         PTCLDY    80  69  69 SE18      29.94S
*CALDWELL      PTCLDY    80  69  68 SE15G21   29.93R
*CROCKETT        N/A     70  68  94 E3        30.01F
*BRENHAM       PTCLDY    80  70  72 E12G17    29.93S
HUNTSVILLE     MOCLDY    76  68  76 E5        29.97F
CONROE         CLOUDY    75  72  90 E9        29.97S
HOUSTON BUSH   LGT RAIN  73  73 100 E13       29.96S FOG
HOUSTON HOBBY  LGT RAIN  78  72  81 E10G21    29.95S
*HOUSTON SW AP PTCLDY    77  72  84 E7        29.95S
PEARLAND       MOCLDY    79  71  76 E14       29.96S
HOUSTON HOOKS  PTCLDY    78  70  76 E15       29.95F
ELLINGTON FLD  MOCLDY    77  73  88 E12       29.98R
SUGAR LAND     PTCLDY    79  71  76 E9        29.93S
*HOUSTON EXEC  PTCLDY    81  68  65 E14G21    29.94F
*CLEVELAND MUN CLOUDY    73  70  89 CALM      30.00R
*WHARTON       CLEAR     80  69  69 E7        29.93R
*COLUMBUS      FAIR      79  70  74 W8        29.92S
*EAGLE LAKE    PTCLDY    80  74  79 E12       29.92S
$$

TXZ214>216-236>238-210000-
THE UPPER TEXAS COAST

CITY           SKY/WX    TMP DP  RH WIND       PRES   REMARKS
*ORANGE        CLOUDY    72  71  95 E6        30.02R
PORT ARTHUR    CLOUDY    73  70  90 E10       29.99S
GALVESTON      CLOUDY    79  74  84 E17       29.96R THUNDER
ANGLETON       PTCLDY    80  72  76 E9        29.93R
*BAY CITY      PTCLDY    81  74  77 E8        29.92R
PALACIOS       NOT AVBL
$$

TXZ229>234-239>247-210000-
TEXAS COASTAL BEND AND RIO GRANDE PLAINS

CITY           SKY/WX    TMP DP  RH WIND       PRES   REMARKS
VICTORIA       SUNNY     84  65  52 SE8       29.90S
*BEEVILLE      CLOUDY    83  56  38 SE7       29.89S
ROCKPORT       MOSUNNY   81  71  71 SE12      29.90S
*PORT ARANSAS  NOT AVBL
*PORT LAVACA   SUNNY     80  68  67 SE6       29.91S
*INGLESIDE     NOT AVBL
CORPUS CHRISTI PTSUNNY   82  69  64 E16       29.89S
CORPUS NAS     NOT AVBL
*ROBSTOWN      MOSUNNY   84  68  57 E17G23    29.89R
ALICE          MOSUNNY   86  67  52 SE15      29.86F
KINGSVILLE NAS NOT AVBL
COTULLA        CLOUDY    84  64  50 E10       29.87
*FAITH RANCH   MOSUNNY   79  66  65 S8        29.89S
LAREDO         CLOUDY    84  68  58 S6        29.87S
$$

TXZ248>255-210000-
DEEP SOUTH TEXAS

CITY           SKY/WX    TMP DP  RH WIND       PRES   REMARKS
BROWNSVILLE    SUNNY     85  71  63 E13       29.89S HX  90
PORT ISABEL    SUNNY     83  74  74 E10       29.88S
*SOUTH PADRE   NOT AVBL
HARLINGEN      SUNNY     85  70  60 E18       29.86S
*HEBBRONVILLE  MOSUNNY   86  60  40 SE12G17   29.88S
MCALLEN        SUNNY     88  69  53 S13       29.86S HX  92
*WESLACO       PTSUNNY   89  67  48 SE9G17    29.85F HX  91
FALFURRIAS     MOSUNNY   85  70  60 SE10G17   29.87R
EDINBURG       SUNNY     89  64  42 SE10      29.86R HX  91
*ZAPATA        PTSUNNY   87  65  46 CALM      29.84F
$$

TXZ213>215-236>238-242>244-246-247-251-254-255-210000-
CMAN STATIONS

STATION/POSITION TIME  TEMP    WIND        PRES    WAVE
                       AIR SEA DIR/SP/G            HT/PER
                 (UTC) (F)     (DEG/KT/KT) (MB)    (FT/S)
SABINE PASS      2230   75 76  100/ 12/ 14 1017.0
SEA RIM ST PARK  2200   75     100/ 10/ 12 1015.8
NORTH JETTY/GLS  2224      76  100/ 23/ 26 1014.1
EAGLE POINT      2224   76 75  120/ 16/ 20 1014.5
MORGANS POINT    2230   76 77  100/ 12/ 17 1014.4
PORT O`CONNOR    2224   81 78  130/  6/  7 1012.5
MALAQUITE BEACH  2224   80 80   90/ 12/ 13 1012.0
BAFFIN BAY       2224   80 80   90/ 14/ 15 1012.3
PORT ISABEL      2224   81 79  110/ 10/ 13 1012.0
$$




USA.gov is the U.S. government's official web portal to all federal, state and local government web resources and services.